TimeEDT,TemperatureF,Dew PointF,Humidity,Sea Level PressureIn,VisibilityMPH,Wind Direction,Wind SpeedMPH,Gust SpeedMPH,PrecipitationIn,Events,Conditions,WindDirDegrees,DateUTC
12:54 AM,57.9,46.9,67,30.03,10.0,Calm,Calm,-,N/A,,Clear,0,2008-05-02 04:54:00
1:54 AM,60.1,46.9,62,30.02,10.0,SE,4.6,-,N/A,,Clear,140,2008-05-02 05:54:00
2:54 AM,59.0,48.9,69,30.02,10.0,Calm,Calm,-,N/A,,Clear,0,2008-05-02 06:54:00
3:54 AM,59.0,50.0,72,30.02,10.0,SSE,9.2,-,N/A,,Clear,150,2008-05-02 07:54:00
4:54 AM,57.0,50.0,77,30.03,10.0,South,9.2,-,N/A,,Clear,170,2008-05-02 08:54:00
5:54 AM,55.9,50.0,80,30.04,10.0,South,8.1,-,N/A,,Clear,170,2008-05-02 09:54:00
6:54 AM,55.9,50.0,80,30.06,10.0,SSE,8.1,-,N/A,,Clear,160,2008-05-02 10:54:00
7:54 AM,59.0,50.0,72,30.07,10.0,SE,5.8,-,N/A,,Clear,140,2008-05-02 11:54:00
8:54 AM,60.1,52.0,75,30.07,10.0,South,8.1,-,N/A,,Clear,170,2008-05-02 12:54:00
9:54 AM,64.9,50.0,58,30.06,10.0,South,13.8,21.9,N/A,,Clear,180,2008-05-02 13:54:00
10:54 AM,68.0,46.9,47,30.07,10.0,South,15.0,23.0,N/A,,Clear,190,2008-05-02 14:54:00
11:54 AM,70.0,50.0,49,30.06,10.0,SSW,19.6,25.3,N/A,,Clear,200,2008-05-02 15:54:00
12:54 PM,73.0,50.0,44,30.04,10.0,SSW,11.5,-,N/A,,Clear,200,2008-05-02 16:54:00
1:54 PM,73.4,48.2,41,30.08,10.0,South,15.0,23.0,N/A,,Clear,180,2008-05-02 17:54:00
2:54 PM,75.0,50.0,41,30.02,10.0,South,11.5,23.0,N/A,,Clear,190,2008-05-02 18:54:00
3:54 PM,75.0,46.9,37,29.99,10.0,South,16.1,24.2,N/A,,Clear,190,2008-05-02 19:54:00
4:54 PM,73.0,46.9,39,29.98,10.0,South,16.1,21.9,N/A,,Clear,180,2008-05-02 20:54:00
5:54 PM,73.0,48.0,41,29.98,10.0,South,12.7,-,N/A,,Clear,180,2008-05-02 21:54:00
6:54 PM,72.0,51.1,48,29.99,10.0,South,11.5,-,N/A,,Clear,180,2008-05-02 22:54:00
7:54 PM,68.0,51.1,55,29.99,10.0,SSE,8.1,-,N/A,,Clear,160,2008-05-02 23:54:00
8:54 PM,66.9,50.0,54,30.01,10.0,SSE,6.9,-,N/A,,Clear,160,2008-05-03 00:54:00
9:54 PM,64.9,50.0,58,30.03,10.0,SSE,3.5,-,N/A,,Clear,150,2008-05-03 01:54:00
10:54 PM,63.0,50.0,63,30.03,10.0,Calm,Calm,-,N/A,,Clear,0,2008-05-03 02:54:00
11:54 PM,62.1,50.0,65,30.01,10.0,South,5.8,-,N/A,,Clear,170,2008-05-03 03:54:00